Weather in Nini

Russia / Stavropol Krai     44°29′08″N   43°56′39″E
temp.,
°C
wind,
m/s
gust,
m/s
humid.,
%
clouds,
%
prec.,
mm/h
press.,
hPa
HPBL,
m
26 october, tue
tue2600:00+4wnw228521 0.0 103229
03:00+4wnw22825 0.0 103223
06:00+2nne228263 0.0 103313
09:00+5nne226569 0.0 1034295
12:00+8n22515 0.0 10321114
15:00+9nne224617 0.0 10311353
18:00+6ene33575 0.0 103242
21:00+4e36625 0.0 1033118
27 october, wed
wed2700:00+3e36640 0.0 1032121
03:00+2ese36690 0.0 1032108
06:00+1ese37730 0.0 1031152
09:00+5ese58580 0.0 1031431
12:00+9ese67450 0.0 1028820
15:00+10ese67400 0.0 1026929
18:00+6ese36580 0.0 1026107
21:00+5ese38680 0.0 1025155
28 october, thu
thu2800:00+4se23870 0.0 102540
03:00+3sse11900 0.0 102410
06:00+3sw22900 0.0 102410
09:00+7wnw34650 0.0 1025241
12:00+13nw464129 0.0 1024864
15:00+14nw5738100 0.0 10231057
18:00+9nw3651100 0.0 1024105
21:00+8nw3755100 0.0 1024224
29 october, fri
fri2900:00+8w3561100 0.0 102399
03:00+7w387599 0.0 1023232
06:00+7w387299 0.0 1024199
09:00+11w61061100 0.0 1024579
12:00+11wnw51062100 0.1 1023832
15:00+11nw61266100 0.2 1024771
18:00+10nw5117359 0.2 1026620
21:00+8nw5108997 0.3 1027363
30 october, sat
sat3000:00+6nnw379133 0.0 1029184
03:00+4nnw349417 0.0 103185
06:00+3nnw34915 0.0 103377
09:00+5n33715 0.0 1035383
12:00+8ne22565 0.0 1034833
15:00+9ene33505 0.0 10341002
18:00+6e35625 0.0 103592
21:00+5e48702 0.0 1036175